Dewpoint
59 58 55 54 54 54 52 52 53 53 53 52 52 55 53 51 51 50 51 55 55 55 55 55 55 55 55 55 54 54 54 54 53 53 53 52 52 52 52 52 52 51 52
59 58 57 56 55 53 52 53 53 53 53 52 52 52 52 51 50 49 49 51 53 53 55 57 57 55 55 54 52 52 52 52 52 52 52 52 52 52 51 51 52 52 52
60 57 56 55 55 55 54 54 55 53 52 50 48 48 48 48 48 48 47 47 48 51 52 53 54 55 54 53 52 51 51 51 50 51 51 52 51 51 51 51 52 51 51
58 57 56 55 53 53 52 52 52 50 49 48 46 45 45 45 44 44 44 44 44 45 48 50 52 53 53 52 51 51 51 50 50 50 51 51 50 50 50 50 51 51 51
55 52 52 51 51 49 48 50 50 48 46 46 44 44 43 43 42 41 42 43 44 43 44 47 48 49 50 52 51 51 51 50 50 51 50 50 49 49 49 49 49 50 51
51 50 49 49 50 49 49 49 49 48 45 43 41 42 42 42 42 42 41 40 43 42 42 41 41 43 47 49 51 50 51 50 50 49 49 50 49 47 49 48 50 50 50
51 50 49 50 48 47 48 50 48 46 44 43 41 41 42 42 41 41 41 41 41 41 43 41 40 40 40 44 46 48 49 49 48 48 47 47 48 48 48 49 49 49 49
51 49 49 49 48 46 49 49 47 46 43 43 40 39 37 39 39 40 41 40 40 40 39 39 39 39 38 38 39 42 43 44 44 44 43 44 44 46 47 46 46 47 48
51 49 50 50 48 46 48 48 48 44 42 43 41 41 37 36 37 39 40 39 39 39 38 38 38 37 37 36 37 38 39 41 42 42 42 41 41 43 44 42 43 44 45
50 50 50 50 48 47 48 48 47 45 42 41 41 43 44 38 36 35 37 39 40 38 38 38 37 37 35 35 36 37 37 38 39 40 41 41 41 43 43 43 43 41 42
52 50 49 50 47 47 49 49 47 45 43 42 42 43 43 40 38 35 34 35 37 37 38 38 38 36 35 34 34 35 36 37 37 37 38 39 40 40 42 42 41 41 41
51 50 49 49 48 46 49 49 48 46 44 43 45 44 44 41 37 36 35 34 33 34 35 36 37 36 34 33 33 34 35 35 35 36 36 37 38 38 41 41 39 39 40
50 49 48 47 47 46 49 48 47 46 45 44 44 44 44 43 41 38 35 33 30 30 30 35 35 35 32 32 32 33 34 33 33 34 34 35 35 35 36 37 38 38 38
49 50 49 47 47 45 47 48 48 47 46 46 45 44 44 43 41 37 35 34 30 28 28 28 33 34 34 33 33 33 31 32 32 32 32 32 33 33 33 34 35 34 35
49 49 49 48 46 44 46 47 47 46 46 47 45 45 44 42 39 42 37 35 32 30 28 28 30 33 31 33 34 31 30 31 30 30 31 31 31 31 31 32 32 32 32
48 48 47 47 45 44 45 46 46 46 45 45 45 43 41 40 39 43 39 37 36 34 32 27 30 32 29 31 34 30 29 30 30 29 29 29 29 29 28 29 30 30 30
47 46 46 45 44 43 43 43 43 43 43 41 42 41 40 40 40 41 40 40 39 35 32 30 30 32 30 29 32 30 30 28 28 28 28 27 27 26 26 27 28 28 28
46 45 44 43 42 41 41 40 39 40 39 39 39 40 39 39 39 40 40 37 37 34 30 27 29 29 28 27 31 30 30 25 26 27 27 26 26 25 25 25 26 26 26
43 43 42 40 39 40 40 39 39 39 39 39 40 39 39 39 40 39 37 36 35 31 30 29 29 30 30 30 28 23 23 26 22 28 26 26 25 25 25 24 24 24 25
40 36 36 36 36 36 38 38 37 36 35 34 35 35 35 35 36 37 37 36 34 31 30 30 31 29 28 28 30 28 27 28 24 20 24 26 25 25 24 23 23 23 23
38 37 36 36 37 37 37 36 35 35 34 34 34 36 34 35 36 35 35 35 34 32 32 31 29 28 23 23 23 24 25 25 23 25 26 25 26 27 29 22 21 20 20
37 36 36 36 36 37 36 36 35 34 34 33 32 28 30 32 32 33 33 34 34 32 31 30 29 27 20 21 23 23 23 22 22 26 21 23 26 26 26 24 20 18 17
35 35 35 36 35 36 36 36 35 33 32 31 29 26 24 28 29 27 29 30 30 33 31 30 29 28 26 26 27 26 26 25 25 23 23 23 25 24 28 25 20 18 16
33 32 33 34 34 35 35 34 33 31 30 30 27 24 24 26 27 27 26 24 24 25 28 27 26 26 25 25 25 23 25 23 23 21 20 21 27 27 28 23 23 20 18
32 33 34 34 33 33 34 34 32 30 29 28 25 23 24 24 28 29 24 23 21 22 24 25 24 23 24 25 25 17 16 16 22 22 21 20 24 23 24 25 22 22 20
34 34 34 33 33 32 34 33 30 27 26 25 23 24 27 24 29 28 23 22 20 17 18 19 21 21 22 23 25 25 25 21 22 21 18 17 20 19 17 27 26 22 21
Lifted_Index
-1 -1 -0 0 2 4 6 6 5 5 4 4 4 3 3 3 3 4 4 5 6 6 6 6 6 6 7 7 8 8 9 9 10 10 10 11 11 11 11 11 11 11 11
-1 -1 -0 -0 1 3 5 6 5 5 4 4 4 4 4 4 4 4 5 6 7 7 7 6 6 6 7 8 8 9 9 10 10 10 11 11 11 11 11 11 11 11 11
-1 -1 -1 -1 1 3 5 5 5 5 5 5 5 5 5 6 6 6 6 7 8 9 8 8 7 7 7 8 9 9 10 10 11 11 11 11 11 12 12 12 11 11 11
-1 -1 -1 -0 2 4 5 5 5 5 5 6 6 6 7 8 8 9 9 10 10 11 10 10 9 9 8 8 9 9 10 10 11 11 11 12 12 12 12 12 12 12 11
-1 -1 -0 2 3 4 5 6 5 6 6 7 8 8 9 10 10 10 11 11 11 12 12 11 11 10 10 9 9 10 10 11 11 11 12 12 12 12 12 12 12 12 11
-1 -0 1 3 3 4 5 6 6 7 8 9 9 10 10 11 11 11 11 11 11 12 12 12 12 12 12 11 11 11 11 11 12 12 12 12 13 13 12 12 12 11 11
-1 0 2 3 4 5 6 6 7 8 8 9 10 9 9 10 11 11 12 12 12 12 12 13 13 13 13 13 13 13 12 12 13 13 13 13 13 13 13 12 12 11 11
-1 0 2 2 4 5 6 7 7 8 9 9 9 8 7 8 10 11 12 12 12 12 13 13 14 15 15 15 15 15 14 14 14 14 14 14 14 13 13 13 13 12 12
-1 0 2 3 4 6 7 7 8 8 9 10 9 7 6 7 9 10 11 12 13 13 13 14 14 15 16 16 16 16 16 16 15 15 15 15 14 14 14 14 14 13 13
-1 0 2 3 5 6 6 7 7 8 9 10 9 7 6 7 7 8 10 11 12 13 13 14 15 15 15 16 17 17 18 17 16 16 15 15 15 14 14 14 14 14 14
-1 0 2 4 5 6 6 6 7 8 9 9 9 8 7 7 7 7 8 10 11 12 13 14 14 15 15 16 17 18 18 18 17 17 16 16 16 15 15 15 15 15 15
-0 1 3 4 5 6 6 6 7 8 9 9 8 7 7 7 7 7 8 9 10 12 13 14 14 15 15 16 17 18 19 19 18 18 17 17 17 16 16 16 15 15 15
-1 1 3 5 6 6 6 6 7 7 8 8 7 7 7 7 8 8 8 9 10 11 13 14 14 15 15 16 17 18 19 19 19 18 18 18 18 18 17 17 16 16 15
-1 1 3 5 6 7 7 6 7 7 7 7 7 7 7 7 8 8 8 8 9 10 12 13 14 15 16 16 17 18 18 19 19 19 19 19 19 18 18 17 17 16 16
1 1 3 5 7 7 7 7 7 7 7 7 7 7 7 7 8 8 8 8 9 10 11 12 14 15 16 16 17 17 18 19 19 19 19 19 19 18 18 18 17 17 17
2 2 4 6 7 8 8 7 7 7 7 7 7 7 8 8 8 8 8 8 9 10 10 12 13 15 15 16 17 17 17 18 19 19 19 19 19 18 18 18 18 18 18
3 3 4 7 8 9 8 8 7 8 8 8 8 8 9 9 9 9 8 8 9 10 10 11 12 14 15 16 16 17 17 18 18 19 19 19 19 18 18 18 18 19 19
3 4 5 7 9 10 10 9 9 9 9 9 9 9 9 10 10 9 8 8 8 9 9 10 12 14 15 15 16 17 17 18 18 19 19 19 19 19 18 19 19 19 20
3 4 6 8 10 11 11 11 11 10 10 10 9 9 9 9 9 8 8 8 8 9 9 10 11 13 14 15 16 16 17 17 18 19 19 19 19 19 18 19 19 20 20
4 5 7 9 10 12 12 13 12 11 10 9 9 9 9 9 9 9 8 9 9 10 10 11 12 12 13 14 15 15 16 16 17 18 18 18 18 18 18 19 19 21 21
6 6 8 9 11 12 13 13 12 10 8 9 10 11 10 10 10 9 10 10 11 11 11 11 11 12 13 13 14 14 14 15 16 17 17 17 18 18 18 19 20 21 21
7 8 9 10 11 13 13 12 11 9 9 11 12 12 11 11 10 10 11 11 12 12 12 12 11 12 12 13 14 14 14 13 14 15 16 16 17 17 18 19 20 20 21
8 9 10 11 12 12 11 10 10 10 11 13 13 13 12 12 12 12 12 12 13 13 13 12 12 12 13 14 14 14 14 13 13 15 15 15 16 17 18 18 19 20 20
10 10 11 11 11 11 10 10 11 12 13 14 14 13 13 13 13 13 13 13 13 13 13 13 13 13 14 15 15 14 14 14 14 14 15 15 16 17 17 18 19 19 20
11 11 11 11 11 11 11 12 13 14 14 14 14 14 14 14 14 14 14 13 13 13 14 14 14 15 15 15 15 14 13 13 13 13 15 15 16 16 17 18 18 19 19
11 11 11 11 11 12 13 13 14 14 14 14 14 14 15 15 15 15 14 13 13 13 14 15 15 15 15 15 15 14 13 13 12 12 14 15 16 16 16 17 18 18 19